Location: Unspecified
(0.0000°N, 0.0000°E)
Time: 07:27:53
(UTC+00:00)

N. Korean satellite - Pass Details

Date: 24 April 2017
Orbit: 462 x 518 km, 97.2° (Epoch: 27 April)

Event Time Altitude Azimuth Distance (km) Brightness Sun altitude
Rises 19:17:34 0° 193° (SSW) 2,496 10.2 -19.3°
Reaches altitude 10° 19:20:01 10° 211° (SSW) 1,613 9.4 -19.9°
Maximum altitude 19:22:33 19° 259° (W) 1,150 9.2 -20.5°
Drops below altitude 10° 19:25:05 10° 306° (NW) 1,603 10.2 -21.2°
Sets 19:27:31 0° 325° (NW) 2,474 10.9 -21.7°
